Theta_e
314 315 317 312 310 312 317 320 318 317 320 321 328 332 333 331 335 334 334 336 335 336 337 338 339 337 334 332 332 329 330 334 334 334 334 334 333 333 335 334 334 333 333 333 330 329 330 327 326
316 318 314 304 307 308 304 310 314 314 314 313 324 330 333 335 335 334 335 336 335 336 338 339 338 336 330 327 331 331 331 333 333 334 334 333 334 335 335 335 334 333 332 331 330 328 326 325 325
317 317 310 306 306 307 309 314 313 311 310 325 329 331 333 336 333 326 328 336 335 337 338 338 338 336 329 324 330 332 332 332 334 334 334 334 335 336 335 334 334 332 332 331 330 328 326 326 325
316 308 304 309 313 313 316 313 311 313 319 324 324 334 331 320 320 319 327 334 335 335 337 337 337 335 331 326 327 330 330 332 333 333 333 330 332 333 332 333 333 332 331 331 330 328 326 325 325
311 303 307 307 311 314 314 311 310 318 321 323 323 330 335 320 317 324 331 333 335 335 335 336 336 335 332 328 328 328 330 332 333 332 327 326 329 332 331 333 333 331 329 330 330 328 326 326 326
309 303 307 308 318 314 312 308 310 314 318 320 323 325 331 318 314 318 327 332 335 333 333 332 333 335 331 330 329 330 331 330 331 330 325 320 328 333 331 333 332 331 329 329 329 327 326 325 324
309 305 307 311 313 314 311 306 311 315 315 317 316 324 318 315 312 316 323 325 327 327 328 332 331 332 332 330 329 331 331 330 328 327 322 317 327 333 333 333 332 330 329 328 327 325 322 323 319
305 306 312 311 313 315 309 308 309 314 315 314 312 318 318 310 311 315 317 322 325 325 322 325 329 330 332 330 330 331 331 327 325 325 322 318 329 333 334 332 330 329 328 326 325 322 319 320 319
306 309 312 313 313 312 308 310 307 310 312 312 310 310 308 308 311 313 314 315 319 320 322 322 322 321 321 330 330 332 330 325 324 326 323 326 330 333 334 331 331 329 326 325 323 320 318 318 318
306 308 311 307 307 307 308 310 309 311 310 309 309 306 306 307 310 312 313 313 313 316 320 323 323 320 320 328 330 331 328 324 326 328 324 324 329 332 333 332 331 329 326 323 321 319 318 318 318
304 305 305 306 305 305 308 309 309 308 310 309 306 305 304 307 308 309 311 310 309 312 316 319 319 318 321 326 331 329 327 326 327 328 327 324 326 331 332 332 330 329 325 322 320 319 318 318 318
306 305 305 305 305 308 308 309 308 308 310 306 304 304 303 304 305 306 307 307 307 309 310 316 318 317 319 321 330 328 328 327 325 327 328 325 324 329 331 331 330 327 323 318 318 319 318 318 319
306 306 305 304 305 305 306 307 308 309 306 304 304 301 300 302 303 304 304 304 304 306 309 311 312 319 318 320 328 327 326 326 325 327 328 325 324 327 330 329 328 326 322 318 317 319 319 319 319
305 305 305 304 304 305 305 304 304 303 302 300 300 300 300 300 301 302 303 302 302 302 304 308 311 314 318 317 320 326 326 325 325 326 328 326 324 324 327 329 329 327 323 319 318 318 319 319 319
304 306 305 304 304 305 304 305 304 301 300 299 298 298 298 299 299 300 300 301 299 300 301 303 308 310 312 316 318 321 326 326 325 326 326 327 325 324 325 326 327 327 326 322 320 318 318 319 319
304 303 306 305 304 305 305 306 304 300 300 299 298 296 297 297 298 298 298 298 298 298 299 300 303 308 311 317 319 319 323 325 326 326 326 327 327 326 324 324 324 325 326 325 323 321 319 319 320
303 307 307 305 304 304 305 307 304 300 300 299 297 296 296 296 298 298 298 297 297 297 297 298 300 303 308 312 317 318 320 324 325 326 326 326 327 327 324 322 323 323 325 326 324 323 321 320 322
308 307 306 305 304 304 305 305 303 301 300 299 297 296 296 296 296 297 297 297 297 297 297 297 298 300 302 310 315 317 319 320 324 325 326 326 327 327 326 323 323 323 324 325 325 324 323 322 322
306 307 306 303 304 305 306 304 303 302 300 299 299 297 296 296 297 297 297 296 296 296 296 296 297 297 298 304 309 311 313 316 320 321 325 325 326 327 326 324 325 325 324 324 323 324 324 324 323
306 306 305 303 303 305 305 304 303 302 301 300 300 298 297 296 295 296 297 296 296 295 295 296 296 296 296 297 299 302 305 311 315 318 318 322 325 325 326 325 326 325 325 324 324 324 324 323 322
307 307 307 306 304 304 302 302 304 303 301 300 299 298 297 296 295 294 295 296 295 295 294 294 295 296 296 297 298 301 306 309 312 315 315 316 320 324 325 325 325 324 323 323 323 323 323 322 320
308 306 306 306 304 307 302 305 302 303 302 301 299 298 296 295 295 295 295 295 295 294 294 294 295 296 296 296 297 297 299 300 303 306 310 313 315 323 324 324 324 324 324 323 322 322 321 321 320
306 305 306 306 306 304 306 300 302 302 304 303 300 298 296 295 294 294 294 295 294 294 294 293 294 295 296 295 296 296 297 298 299 302 308 309 312 319 322 323 322 323 323 322 322 322 321 320 320
305 306 300 300 302 298 306 302 303 302 305 302 301 299 297 294 294 294 294 294 294 293 293 293 294 294 295 295 295 296 296 297 298 300 302 306 309 315 318 322 322 323 323 321 321 321 321 320 320
301 298 291 293 293 299 301 302 302 301 301 302 301 299 297 294 294 292 292 292 292 292 292 292 293 294 294 295 295 296 296 296 297 298 299 302 305 310 315 317 321 322 323 323 322 321 321 320 320
304 300 295 292 298 297 301 305 306 302 301 300 299 298 296 294 293 292 292 292 291 291 292 292 292 292 293 294 294 295 295 296 297 297 298 299 302 304 307 311 315 319 321 322 322 322 322 322 321
301 300 301 297 294 298 299 299 299 302 302 300 300 299 297 294 293 292 292 292 291 291 291 291 291 292 293 293 294 294 294 295 296 297 298 299 300 303 305 309 314 317 319 321 321 322 322 322 321
302 301 296 293 291 292 295 296 300 304 304 301 300 299 297 295 293 292 291 291 291 290 291 291 291 291 292 293 293 293 294 294 295 296 298 299 299 301 304 308 312 315 317 319 321 321 322 322 321
303 300 302 300 299 293 290 296 294 302 302 301 298 297 296 295 293 292 292 291 290 289 290 290 291 291 292 292 293 293 293 294 294 296 297 299 299 301 305 308 311 314 318 320 321 321 321 321 320
300 303 301 294 289 294 296 297 297 298 298 298 298 297 296 295 293 292 292 291 290 289 290 289 290 291 291 291 292 293 293 293 294 295 296 298 300 301 305 308 311 313 316 318 318 319 317 318 315
Wind_Speed
8 4 4 6 4 5 2 2 4 8 8 5 7 4 4 4 3 3 13 4 8 24 23 24 25 22 20 18 19 20 19 17 14 13 13 14 17 18 18 19 20 21 21 20 21 20 19 20 20
5 3 4 3 5 3 4 4 7 5 6 11 4 4 7 3 2 2 7 11 7 23 22 23 24 25 23 20 19 19 19 18 17 14 14 13 14 16 18 22 23 23 21 21 21 21 19 19 20
4 5 4 4 3 2 2 4 7 7 7 8 4 5 4 6 9 12 25 8 8 18 19 22 22 22 23 23 21 19 18 19 17 16 13 14 14 16 19 23 26 23 22 22 21 20 19 19 19
2 7 4 4 3 1 2 7 5 10 7 12 6 5 6 20 9 19 24 7 11 23 19 20 21 21 20 21 21 18 16 17 17 16 14 13 14 16 19 23 26 25 23 22 22 20 19 17 16
7 4 4 4 1 2 2 4 6 5 4 8 11 6 3 9 32 34 26 9 12 21 21 21 20 19 19 18 18 19 17 15 15 14 14 12 12 14 21 25 27 24 25 23 21 20 16 16 15
4 3 4 2 2 3 2 6 5 5 5 6 7 8 3 12 38 35 27 10 6 15 17 16 18 18 19 20 19 19 19 16 15 14 12 12 12 16 22 26 27 25 25 23 21 19 18 18 17
6 4 3 1 3 4 6 10 4 4 6 6 9 4 6 17 37 28 17 17 15 14 18 8 13 15 18 20 20 19 18 17 15 14 13 12 13 16 21 28 28 26 23 22 20 18 17 18 16
4 4 4 4 2 0 5 6 1 7 3 4 7 7 7 20 30 25 20 15 11 14 14 16 8 7 17 21 21 22 19 16 14 12 11 14 15 17 23 25 22 23 24 24 22 17 16 16 16
2 5 2 1 3 5 4 4 5 1 4 4 4 4 12 24 22 22 25 26 19 15 11 8 21 25 34 25 23 21 19 17 15 13 11 13 16 19 24 25 23 23 23 23 23 19 17 16 16
5 4 2 1 2 3 3 4 4 3 6 5 3 9 19 19 19 19 20 20 23 19 13 9 19 22 39 23 26 23 19 18 18 16 15 14 14 19 22 23 23 21 21 24 24 21 17 17 18
3 3 2 3 3 2 3 3 3 4 5 2 7 11 15 14 16 18 18 17 17 16 13 11 12 16 31 23 30 24 21 20 19 19 18 16 16 19 23 23 21 20 21 24 23 19 18 17 16
6 4 2 4 6 2 2 2 3 5 1 3 5 8 10 11 14 15 17 19 23 21 18 15 11 14 20 32 31 26 22 20 18 19 20 19 18 19 22 24 21 22 22 24 23 21 19 17 13
5 1 4 4 6 4 5 4 3 2 2 5 6 8 7 10 12 11 12 15 19 23 21 18 15 15 13 35 19 23 22 21 20 20 19 19 19 21 22 23 20 21 22 22 22 21 19 17 14
3 4 3 5 4 3 3 2 2 1 2 5 6 6 7 8 13 14 17 18 20 21 23 22 18 15 7 20 22 20 21 20 20 21 20 21 20 23 24 25 25 22 20 21 21 21 21 18 16
2 3 4 8 7 2 4 2 3 2 2 5 7 6 7 10 14 13 15 15 20 18 19 23 21 17 9 14 15 3 18 17 19 21 23 23 23 23 24 25 25 23 22 21 21 21 20 18 15
5 5 4 3 9 2 2 5 2 2 3 6 8 7 7 8 12 17 17 19 20 20 19 19 19 17 14 9 9 10 4 12 18 20 22 24 25 24 24 25 25 26 24 23 21 21 19 18 17
7 2 4 7 3 5 4 3 2 1 2 5 7 7 7 7 12 17 18 19 19 20 18 18 19 20 18 5 2 4 3 5 18 20 23 27 27 28 26 25 25 23 24 23 22 20 18 18 17
1 3 4 4 5 6 4 4 3 1 1 5 6 6 7 7 6 14 16 19 20 21 19 17 17 18 18 13 5 3 3 4 7 16 23 26 24 27 25 24 23 23 24 23 21 22 18 18 16
5 3 3 5 3 6 4 5 7 3 3 5 6 6 6 7 10 14 16 18 21 22 23 21 19 17 17 17 11 9 6 5 3 3 10 21 24 28 27 25 24 24 24 24 22 21 20 18 16
4 3 3 7 5 3 5 10 7 3 4 4 4 7 6 6 7 14 17 18 21 21 23 21 19 17 16 14 12 8 12 7 4 5 7 9 24 25 26 24 24 23 24 23 22 21 20 17 13
3 4 3 4 7 3 7 6 4 3 3 3 5 5 5 6 7 8 16 15 18 21 22 20 20 17 15 14 11 8 3 4 3 3 6 7 11 25 23 23 23 22 23 23 23 23 21 18 16
3 3 3 4 6 3 5 4 5 4 7 5 7 6 7 7 5 5 12 15 16 18 18 18 17 17 17 14 12 11 8 9 7 9 8 10 7 17 18 19 19 22 24 25 24 23 22 19 16
3 1 2 2 3 3 2 3 6 4 5 5 6 7 6 6 5 6 9 13 15 16 17 17 16 15 15 14 12 12 10 9 11 10 8 7 5 9 7 17 22 24 24 26 25 25 24 23 21
3 3 4 3 2 3 3 3 5 3 4 5 4 5 6 5 5 6 8 10 14 13 14 15 16 16 14 13 12 11 11 12 12 10 8 9 8 6 3 4 18 30 27 25 24 24 25 24 23
3 4 4 6 4 4 2 2 8 5 5 5 5 6 6 5 3 5 6 9 12 14 14 16 17 17 15 14 12 11 11 11 11 12 12 11 10 7 4 4 4 6 14 20 19 22 23 25 24
4 4 5 4 3 5 2 4 4 4 6 6 6 6 5 5 4 4 6 9 12 14 14 13 14 14 14 13 12 10 10 11 11 11 11 9 10 9 7 6 6 6 9 10 10 12 14 18 21
3 5 3 6 2 2 4 7 7 4 8 7 8 6 8 6 5 5 4 7 10 13 14 11 12 13 13 12 13 12 11 10 10 10 10 8 7 8 10 8 8 7 9 10 11 12 14 14 19
1 7 4 3 3 5 5 6 5 5 7 6 7 7 7 6 6 4 4 5 6 8 11 10 10 11 12 12 12 11 11 10 8 8 8 8 8 8 8 9 7 7 10 9 12 9 9 12 16
1 2 5 4 3 4 2 6 6 5 5 7 8 8 7 7 7 5 3 4 5 6 6 9 11 12 12 11 11 10 10 11 10 7 8 7 8 8 5 6 6 4 4 6 8 7 5 4 8
1 3 3 4 4 2 3 7 2 7 7 7 9 8 7 5 6 6 6 6 7 6 7 9 10 11 12 11 11 10 10 10 9 8 7 6 4 5 4 4 4 4 5 5 7 4 5 5 6
Wind_Direction
1 50 89 47 63 65 281 291 324 340 348 338 312 63 106 59 9 298 346 213 172 168 173 173 168 167 163 160 154 151 151 142 141 141 144 152 153 151 145 145 140 136 133 130 125 121 118 116 113
34 79 66 86 91 77 278 307 331 275 293 301 248 328 48 36 21 14 6 337 173 172 175 176 172 171 168 164 157 158 156 148 147 148 144 152 158 154 155 150 146 143 139 132 127 122 120 120 117
64 44 79 92 97 136 242 350 288 298 299 352 18 58 43 360 4 359 350 310 191 185 185 181 179 178 174 167 165 170 166 156 153 151 148 147 162 164 163 157 149 148 141 136 131 124 118 120 119
19 21 38 76 113 117 80 317 301 326 340 19 345 58 90 63 358 325 343 312 199 194 196 191 187 183 182 175 172 175 172 163 160 162 158 155 162 177 168 164 154 151 144 142 137 134 131 128 124
40 53 57 80 62 105 43 327 316 357 15 356 339 347 67 25 1 9 6 329 216 200 201 202 194 188 186 186 182 177 178 170 162 166 165 166 165 170 173 168 156 154 149 145 142 139 140 146 140
46 94 60 156 195 7 313 355 335 17 355 352 27 344 44 11 5 359 14 5 243 219 223 221 210 195 197 191 188 183 180 179 178 176 175 172 164 164 172 168 159 155 151 147 144 139 137 136 139
103 76 128 68 329 18 334 333 42 357 1 11 324 343 297 0 348 357 350 17 40 36 25 291 231 220 211 203 194 190 184 185 184 186 185 179 167 170 176 171 165 158 151 149 148 150 143 144 141
99 88 65 16 333 22 327 357 336 35 36 325 342 9 334 331 343 2 17 7 332 332 346 1 320 303 249 217 201 190 188 186 184 192 194 179 173 171 171 170 173 157 160 156 162 158 147 148 146
81 64 81 13 24 282 335 20 4 8 66 33 53 23 320 333 355 7 17 21 22 1 343 348 336 337 325 239 207 193 191 186 178 181 180 180 172 169 173 174 168 161 159 163 166 163 153 154 153
63 78 133 211 256 277 312 60 313 29 11 3 342 352 349 353 4 13 16 10 12 14 4 311 278 318 325 265 207 190 189 187 179 182 176 183 176 172 172 171 166 162 167 169 170 167 156 161 162
45 98 180 335 282 257 335 50 32 345 31 19 307 326 345 360 7 11 8 8 360 6 30 16 321 312 345 292 198 187 187 190 187 187 184 181 178 179 177 170 167 167 174 171 171 169 159 164 169
90 53 71 350 352 38 31 99 45 48 325 308 315 333 342 4 11 4 1 358 358 7 17 34 345 299 308 334 186 183 188 193 196 191 190 181 179 180 181 174 174 172 178 177 173 174 169 169 173
78 99 50 2 57 74 65 56 81 38 343 341 344 0 4 6 5 4 10 4 6 6 7 17 13 9 350 341 180 189 191 196 197 194 194 188 184 182 185 182 180 177 184 181 177 179 181 182 179
98 91 58 27 12 40 94 24 116 53 12 0 3 2 2 6 359 359 9 10 5 7 7 3 10 29 359 305 353 211 196 201 202 199 198 196 191 187 188 188 188 185 186 186 186 186 188 192 192
84 64 11 13 341 29 157 13 339 305 42 358 336 349 356 360 12 5 8 3 4 9 8 6 3 359 19 357 344 2 192 204 205 205 204 201 197 191 189 190 191 191 193 190 193 195 198 204 208
47 54 10 356 4 5 156 283 296 16 24 340 333 339 341 341 354 4 7 13 9 9 14 7 7 6 351 56 352 349 177 215 211 212 213 208 201 199 196 196 195 196 197 199 201 205 208 210 217
23 20 337 324 62 343 15 283 252 48 27 321 319 326 331 335 351 358 4 8 12 12 12 9 6 11 3 347 156 325 336 231 226 222 217 217 205 201 200 201 202 198 201 204 207 213 218 218 223
13 17 321 285 317 348 310 283 259 202 262 295 307 321 329 334 323 346 1 3 10 14 14 16 6 9 5 5 334 148 194 90 201 228 227 221 216 204 205 207 206 202 202 207 210 217 218 226 233
130 96 305 278 310 349 286 289 279 240 253 289 302 315 323 322 319 338 356 2 5 12 8 16 10 6 2 17 11 11 14 16 74 50 235 225 225 215 203 207 212 209 210 207 210 213 221 227 232
71 63 315 283 277 308 321 293 274 216 237 227 265 298 308 316 325 332 344 357 2 5 5 7 8 8 0 7 4 345 318 307 27 43 38 188 223 217 204 209 211 213 213 212 211 213 217 224 223
66 77 311 256 321 251 330 310 310 281 249 236 250 259 290 288 306 319 332 347 354 1 360 0 358 1 1 2 353 352 341 336 23 58 354 29 156 207 206 211 216 218 220 216 214 214 217 212 214
109 141 274 305 17 310 33 286 295 298 282 252 258 257 273 289 302 311 324 335 349 353 352 355 356 356 358 359 358 8 8 342 333 330 348 16 30 185 207 212 218 225 223 226 225 224 223 228 223
193 80 91 350 350 11 353 62 272 341 310 303 285 249 257 268 276 305 322 327 337 345 348 348 357 359 354 359 355 358 358 335 331 334 345 358 356 105 188 228 229 235 234 235 234 230 228 231 230
305 118 64 57 15 19 329 93 286 269 244 293 296 272 261 270 267 299 316 323 330 340 346 354 358 357 355 355 356 0 350 343 334 337 348 338 347 49 56 188 234 234 230 235 235 236 236 236 237
43 51 357 358 10 222 2 11 251 277 263 244 278 284 277 256 253 290 311 317 327 338 351 360 358 352 352 352 351 359 348 341 334 340 344 338 335 353 309 325 235 230 235 248 241 241 238 238 244
5 113 135 234 311 288 328 237 257 234 289 266 272 266 274 242 255 272 300 313 329 335 350 354 357 351 350 347 347 358 348 336 338 337 329 322 317 315 305 287 277 231 216 241 248 239 247 246 245
281 50 139 100 34 344 282 290 298 282 286 284 281 290 280 262 243 250 268 299 324 334 341 349 351 354 353 343 347 353 351 342 336 330 319 316 310 301 304 292 269 255 251 245 242 255 272 257 254
117 164 73 12 41 316 303 293 251 290 275 283 288 287 293 288 279 245 230 287 316 330 332 340 349 354 353 354 352 347 348 340 335 330 324 320 308 297 297 304 282 261 252 240 235 241 264 264 248
2 42 58 106 115 154 303 275 218 240 274 273 276 280 281 282 280 277 259 276 302 326 335 343 358 357 5 1 0 358 354 351 348 344 326 316 311 306 308 307 296 257 232 218 228 225 250 249 244
278 224 146 121 250 128 136 275 288 257 285 293 282 284 286 275 271 268 281 300 308 333 351 358 358 356 6 6 4 6 9 6 358 358 345 337 320 319 316 286 260 211 175 167 162 177 158 154 160